Location: Adobe Acres Park
(35.0181°N, 106.6892°W)
Time: 05:53:18
(UTC+00:00)

Daily predictions for brighter satellites

Satellite Brightness Start Highest point End
(mag) Time Altitude Azimuth Time Altitude Azimuth Time Altitude Azimuth
Cosmos 1782 Rocket 4.2 00:22:13 10° NNE 00:26:09 33° E 00:30:02 10° SE
Abrixas rocket 2.7 00:23:57 10° WSW 00:26:52 47° NNW 00:29:48 10° NE
IRS-1C Rocket 4.1 00:24:37 10° SSE 00:29:51 71° ENE 00:35:06 10° N
Cosmos 1743 3.7 00:27:24 10° NNE 00:30:42 26° ENE 00:34:01 10° SE
Cosmos 1703 Rocket 3.6 00:26:53 10° S 00:31:21 85° E 00:35:50 10° N
NOSS 7 (H) 4.3 00:28:51 10° SSW 00:32:37 75° ESE 00:35:42 10° NE
Cosmos 1536 3.6 00:32:07 10° NNW 00:36:02 57° W 00:39:55 10° S
CZ-3B R/B 3.3 00:34:22 10° S 00:36:38 15° SSE 00:39:32 10° ESE
Cosmos 1190 Rocket 4.0 00:33:02 10° SSW 00:38:13 89° ESE 00:43:27 10° NNE
COBE Rocket 4.0 00:33:52 10° N 00:38:33 77° WNW 00:43:19 10° SSW
SMAP 3.0 00:34:05 10° SSE 00:38:43 80° ENE 00:43:23 10° N
Cosmos 614 Rocket 4.2 00:34:47 10° SSW 00:39:51 70° WNW 00:44:55 10° NNE
Cosmos 1943 4.3 00:35:41 10° SSE 00:40:03 23° ESE 00:44:10 11° NE
OAO 2 Rocket 3.6 00:35:36 10° W 00:40:32 69° SSW 00:45:33 10° ESE
Cosmos 676 Rocket 4.1 00:36:06 10° S 00:41:06 53° ESE 00:46:09 10° NNE
Cosmos 2221 Rocket 4.2 00:37:08 10° SSE 00:41:10 34° E 00:45:11 10° NNE
Okean 2 Rocket 4.3 00:38:13 10° NNE 00:41:41 22° ENE 00:45:09 10° SE
CZ-4C R/B 2.7 00:41:56 10° S 00:46:11 33° ESE 00:50:18 13° NE
Cosmos 2026 Rocket 3.9 00:40:30 10° S 00:46:33 84° E 00:52:38 10° N
Cosmos 1954 Rocket 4.1 00:41:56 10° S 00:46:58 57° ESE 00:52:03 10° NNE
Cosmos 2278 Rocket 4.2 00:42:34 10° NW 00:47:32 32° WSW 00:52:29 10° SSW
Sich 1 Rocket 3.9 00:43:21 10° N 00:47:33 43° E 00:51:43 10° SSE
Sakura Rocket 4.4 00:43:21 10° WSW 00:47:47 43° S 00:53:45 10° ESE
Okean 1 3.2 00:44:41 10° S 00:48:39 76° E 00:52:37 10° N
Okean O Rocket 4.4 00:48:39 10° SSW 00:52:01 22° W 00:55:23 10° NW
Meteor 1-18 Rocket 4.2 00:48:07 10° S 00:53:50 77° E 00:59:27 10° NNE
OAO 3 Copernicus 4.4 00:49:22 10° WSW 00:54:26 78° S 00:58:24 17° E
GPS 2-05 Rocket1 2.6 00:52:18 10° WSW 00:54:58 55° SSE 00:56:30 22° E
CORIOLIS 4.2 00:50:03 10° SSE 00:55:30 87° WSW 01:00:58 10° NNW
Cosmos 2369 Rocket 3.2 00:53:01 10° N 00:57:23 22° ENE 01:01:44 10° ESE
STARLINK-45 4.4 00:53:54 10° SSW 00:57:30 33° SE 00:59:37 20° ENE
SL-16 R/B 3.4 00:53:49 10° SW 00:59:11 42° WNW 01:04:35 10° N
STARLINK-75 4.3 00:55:32 10° SSW 00:59:13 36° SE 01:01:20 21° ENE
Okean 1-7 3.9 00:55:23 10° SSW 00:59:36 51° W 01:03:52 10° N
STARLINK-26 3.6 00:56:29 10° SSW 00:59:50 45° SE 01:01:39 23° ENE
STARLINK-76 4.5 00:57:03 10° SSW 01:00:38 31° SE 01:02:30 21° E
STARLINK 4.4 00:58:39 10° SSW 01:02:15 33° SE 01:04:04 22° E
Cosmos 405 Rocket 3.7 01:02:39 21° NE 01:03:31 23° ENE 01:06:34 10° SE
STARLINK-32 4.4 01:00:16 10° SSW 01:03:55 34° SE 01:05:40 23° E
STARLINK-40 4.3 01:01:52 10° SSW 01:05:33 35° SE 01:07:15 24° E
Cosmos 1603 3.8 01:00:52 10° S 01:06:27 58° ESE 01:11:31 13° NNE
Cosmos 1140 Rocket 4.0 01:01:57 10° SSW 01:06:59 61° WNW 01:12:05 10° N
STARLINK-44 4.3 01:03:29 10° SSW 01:07:11 37° SE 01:08:50 25° E
STARLINK-37 4.1 01:05:10 10° SSW 01:08:56 40° SE 01:10:35 27° E
Delta 2 Rocket 3.7 01:03:43 10° W 01:09:01 83° N 01:11:52 24° E
FengYun 1-2 T 4.2 01:04:44 10° SSE 01:10:05 58° ENE 01:15:29 10° N
CZ-4 R/B 1.7 01:06:36 10° SE 01:10:13 38° ENE 01:13:48 10° N
H-2A R/B 4.3 01:06:59 10° SSW 01:10:25 37° W 01:13:51 10° NNW
STARLINK-36 4.1 01:06:43 10° SSW 01:10:29 40° SE 01:12:01 27° E
STARLINK-41 4.1 01:08:19 10° SSW 01:12:05 40° SE 01:13:33 29° E
Envisat 2.9 01:07:17 10° SSE 01:12:22 88° E 01:17:28 10° NNW
STARLINK-64 4.0 01:09:58 10° SSW 01:13:45 43° SE 01:15:09 30° E
Aureole 3 Rocket 3.4 01:15:00 27° ESE 01:15:00 27° ESE 01:17:17 10° SSE
YAOGAN 1 3.1 01:10:40 10° SE 01:14:35 35° ENE 01:18:31 10° N
STARLINK-35 4.0 01:11:34 10° SSW 01:15:23 45° SE 01:16:46 32° E
Cosmos 1417 Rocket 4.4 01:10:02 10° N 01:16:07 64° E 01:22:14 10° SSE
Cosmos 1300 Rocket 4.0 01:12:46 10° NNE 01:16:45 36° E 01:20:43 10° SSE
COSMO-SKYMED 1 2.6 01:12:42 10° N 01:17:04 85° WNW 01:21:24 10° SSW
STARLINK-51 3.9 01:13:13 10° SSW 01:17:05 47° SE 01:18:24 33° E
Okean-O 2.9 01:13:35 10° S 01:17:59 70° WSW 01:22:25 10° NNW
STARLINK-30 3.8 01:14:51 10° SSW 01:18:43 49° SE 01:19:58 35° E
Cosmos 1943 Rocket 2.5 01:13:27 10° N 01:18:44 40° ENE 01:23:55 10° SE
STARLINK-33 3.8 01:16:28 10° SSW 01:20:22 51° SE 01:21:34 37° E
STARLINK-50 3.7 01:18:06 10° SSW 01:22:02 53° SE 01:23:10 38° E
STARLINK 3.9 01:19:34 10° SSW 01:23:27 48° SE 01:24:24 39° E
STARLINK-56 3.6 01:21:23 10° SSW 01:25:19 58° SE 01:26:21 42° ENE
Starlink (trailer) 3.6 01:23:00 10° SSW 01:26:58 61° SE 01:27:56 45° ENE
CSL-04 Rocket 3.7 01:22:49 10° SSE 01:27:54 51° ENE 01:33:02 10° N
BREEZE-M DEB (TANK) 2.3 01:25:20 10° NW 01:27:41 37° N 01:27:41 37° N
STARLINK-38 3.5 01:24:38 10° SW 01:28:36 63° SE 01:29:30 47° ENE
Okean 3 3.4 01:24:46 10° S 01:28:56 82° W 01:32:46 12° N
Cosmos 1515 3.7 01:25:32 10° S 01:29:17 79° W 01:32:07 17° N
Meteor 2-4 Rocket 3.7 01:23:34 10° S 01:29:26 74° E 01:35:12 10° NNE
YAOGAN 6 2.6 01:26:21 10° S 01:29:52 76° W 01:33:28 10° NNW
STARLINK-65 3.5 01:26:16 10° SW 01:30:14 66° SE 01:31:05 50° ENE
Cosmos 1975 2.8 01:26:15 10° N 01:30:16 82° W 01:34:17 10° S
Cosmos 1850 Rocket 4.0 01:25:43 10° S 01:30:50 58° ESE 01:33:21 29° NE
IRIDIUM 106 4.2 01:29:19 10° S 01:34:27 64° E 01:39:37 10° N
STARLINK-69 3.4 01:31:15 10° SW 01:35:14 77° SE 01:35:57 58° ENE
Gbstr 26 Del rocket 4.2 01:28:44 10° SW 01:36:07 70° NW 01:39:33 29° NE
Meteor 2-13 Rocket 4.5 01:30:46 10° S 01:36:49 82° W 01:42:56 10° N
STARLINK-66 3.4 01:32:51 10° SW 01:36:52 78° SE 01:37:28 61° ENE
USA 267 3.1 01:34:25 10° SE 01:40:53 77° NE 01:47:26 10° NW
STARLINK-70 3.4 01:37:47 10° SW 01:41:49 87° SE 01:42:15 70° NE
Shenzhou-11 Module 4.3 01:39:55 10° W 01:41:52 18° SW 01:42:49 15° S
Cosmos 1655 Rocket 4.2 01:36:26 10° SSW 01:42:43 73° W 01:48:59 10° N
STARLINK-68 3.4 01:39:34 10° SW 01:43:34 85° NW 01:43:59 70° NNE
STARLINK-58 3.4 01:41:09 10° SW 01:45:10 85° NW 01:45:29 75° NNE
STARLINK-62 3.4 01:42:51 10° SW 01:46:52 79° NW 01:47:09 73° N
STARLINK-63 3.4 01:44:26 10° SW 01:48:27 80° NW 01:48:38 77° N
CSL-04 Debris 4.1 01:44:39 10° SSE 01:50:06 86° ENE 01:55:34 10° NNW
NOSS 3-1 (C) 4.4 01:43:30 10° NNW 01:50:54 45° NE 01:53:09 38° E
STARLINK-72 3.5 01:47:40 10° SW 01:51:41 78° NW 01:51:42 78° NW
Lacrosse 5 2.8 01:48:20 10° WSW 01:53:09 42° NW 01:55:07 29° N
Cosmos 2151 Rocket 3.4 01:48:55 10° N 01:53:19 88° W 01:57:42 10° S
OAO 3 Rocket 4.1 01:49:03 10° W 01:53:29 42° SSW 01:55:02 31° SSE
STARLINK-59 3.7 01:51:05 10° SW 01:55:01 68° NW 01:55:01 68° NW
STARLINK-55 3.8 01:54:23 10° SW 01:58:10 63° WNW 01:58:10 63° WNW
Cosmos 1461 3.1 01:56:00 10° SW 01:59:44 59° WNW 01:59:44 59° WNW
STARLINK-28 3.9 01:56:06 10° WSW 01:59:48 59° WNW 01:59:48 59° WNW
USA 229 DEB 4.0 01:54:44 10° NNW 02:01:52 51° NE 02:02:42 49° ENE
USA 229 4.0 01:54:50 10° NNW 02:01:57 51° NE 02:02:42 49° ENE
STARLINK-53 4.1 01:59:24 10° WSW 02:02:57 54° WNW 02:02:57 54° WNW
Cosmos 2263 4.5 01:58:48 10° NNW 02:03:24 50° NNE 02:03:24 50° NNE
STARLINK-54 4.2 02:01:05 10° WSW 02:04:35 51° WNW 02:04:35 51° WNW
STARLINK-34 4.5 02:04:27 10° WSW 02:07:46 46° WNW 02:07:46 46° WNW
NOAA 11 4.4 02:12:05 10° S 02:17:29 68° WSW 02:22:58 10° NNW
Cosmos 1943 4.3 02:18:30 10° SW 02:23:46 40° WNW 02:26:02 28° NNW
Meteor 2-19 Rocket 4.3 02:20:15 10° S 02:26:05 82° S 02:26:05 82° S
CZ-3B R/B 2.8 02:24:56 10° SW 02:28:58 38° S 02:28:58 38° S
CZ-4C R/B 3.6 02:30:23 10° WSW 02:34:38 27° NW 02:35:31 26° NNW
Cosmos 2369 Rocket 3.1 02:36:13 10° NW 02:41:34 45° WSW 02:43:57 29° SSW
Centaur D-1AR AC-36 4.1 02:46:14 10° WSW 02:52:55 22° SSW 02:53:03 22° SSW
ADEOS Rocket 4.3 02:56:55 28° SW 02:56:55 28° SW 02:59:35 10° SSW
ATLAS 3B CENTAUR R/B 4.4 02:52:28 10° SW 03:00:28 45° SSE 03:00:28 45° SSE
Cosmos 1943 Rocket 4.3 02:57:51 10° NW 03:02:08 23° W 03:06:24 10° SSW
Centaur D-1A AC-31 4.3 03:38:40 10° WSW 04:15:45 18° SE 04:57:28 10° SE
Cosmos 1943 3.9 11:21:29 51° E 11:21:29 51° E 11:26:25 10° SE
Hubble Space Telescope 3.6 11:25:33 12° SE 11:25:33 12° SE 11:26:38 10° SE
COBE Rocket 4.2 11:40:25 10° SSE 11:44:19 57° SE 11:44:19 57° SE
Cosmos 2026 Rocket 4.5 11:39:19 11° N 11:45:20 59° E 11:51:33 10° SSE
Cosmos 1603 4.0 11:49:27 52° SSW 11:49:27 52° SSW 11:53:53 10° S
CZ-4C R/B 3.9 11:51:12 32° SW 11:51:12 32° SW 11:56:54 10° S
